Weather in Shudayag

Russia / Komi Republic     63°31′42″N   53°36′15″E
temp.,
°C
wind,
m/s
gust,
m/s
humid.,
%
clouds,
%
prec.,
mm/h
press.,
hPa
HPBL,
m
25 july, sun
sun2500:00+5wsw2897100 0.0 1008279
03:00+7sw4996100 0.4 1008669
06:00+8w4894100 0.8 10091063
09:00+9w4890100 0.9 1010961
12:00+11wsw4771100 0.2 1011989
15:00+14wsw485432 0.3 10111520
18:00+14wsw485691 0.0 10121033
21:00+11wsw2778100 0.1 1012242
26 july, mon
mon2600:00+10w379483 0.2 1012378
03:00+9w2697100 0.3 1013277
06:00+10w3881100 0.0 1013597
09:00+11w4862100 0.0 10131059
12:00+13wnw5957100 0.1 10131796
15:00+12w4971100 0.6 10121555
18:00+10w388292 0.7 1012911
21:00+7w279376 1.1 1012171
27 july, tue
tue2700:00+7wnw399256 0.1 1012346
03:00+4w3896100 0.1 1012225
06:00+6wnw4989100 0.1 1012494
09:00+8wnw4990100 0.1 1012740
12:00+9wnw4884100 0.4 1012986
15:00+8wnw51084100 0.6 10121203
18:00+7nw51293100 1.0 10111325
21:00+6wnw51195100 1.3 10111232
28 july, wed
wed2800:00+6nw51093100 0.3 10101131
03:00+6nw3894100 0.4 10101114
06:00+6wnw3792100 0.1 1009744
09:00+8wnw3684100 0.3 1008857
12:00+11wnw3662100 0.1 10071307
15:00+11e1268100 0.1 1006107
18:00+11sse127399 0.0 1005448
21:00+8ssw1294100 0.1 100481
29 july, thu
thu2900:00+8wnw269797 0.4 1004201
03:00+6nne2598100 0.4 1004276
06:00+7nne239198 0.0 1005330
09:00+10nnw127090 0.1 1005979
12:00+12wnw1356100 0.1 10041259
15:00+13nw0257100 0.1 1004921
18:00+13ese2360100 0.0 1003453
21:00+9ese397490 0.0 1002273